STARLINK-4496 (53412 NORAD) Tracking and Keplerian Element Data

This shows tracking and keplerian element data for the satellite.

Feedback or suggestion? Click here.




ElementValue
Catalog53412
NameSTARLINK-4496
Epoch Orbit1676
Epoch Day324.85791437
Epoch Year2022
RAAN122.8152
Inclination53.2153
Eccentricity0.000204
Argument of Perigee52.1592
Mean Anonmoly307.9584
Mean Motion15.08842716
Decay Rate1.272E-05
L11 53412U 22097AA 22324.85791437 .00001272 00000+0 98034-4 0 9991
L22 53412 53.2153 122.8152 0002040 52.1592 307.9584 15.08842716 16765



Live tracking and technical data element details for STARLINK-4496 (NORAD 53412). STARLINK-4496 can be tracked NOW for your location showing map with azimuth and elevation plus other details from your city location.







IsCatalogInMostPopularTable: catalog: 53412, numindb: 3
Update: records affected: 1



GetName: 53412 STARLINK-4496

Hit Count: updated at: Thu, 08 Dec 2022 09:49:33 GMT